Location: Unspecified
(0.0000°N, 0.0000°E)
Time: 13:27:24
(UTC+00:00)

deb Explorer IX - All Passes

Search period start: 16 September 2014 00:00
Search period end: 26 September 2014 00:00
Orbit: 558 x 1217 km, 38.8° (Epoch: 15 September)

Date Brightness Start Highest point End Pass type
(mag) Time Alt. Az. Time Alt. Az. Time Alt. Az.
16 Sep - 02:29:51 10° NNW 02:36:08 36° NE 02:41:30 10° ESE visible
16 Sep - 04:18:56 10° WNW 04:24:42 37° SW 04:29:35 10° SSE visible
16 Sep - 13:35:55 10° SSE 13:38:04 13° SE 13:40:21 10° ESE daylight
16 Sep - 15:20:54 10° SW 15:26:13 86° NW 15:32:40 10° NE daylight
16 Sep - 17:11:42 10° WNW 17:15:21 16° NNW 17:19:21 10° N daylight
17 Sep - 00:42:53 10° NNE 00:44:02 10° NNE 00:45:09 10° NE night (unlit)
17 Sep - 02:26:51 10° NW 02:33:40 50° NE 02:39:24 10° ESE visible
17 Sep - 04:16:53 10° W 04:22:06 27° SW 04:26:39 10° SSE visible
17 Sep - 13:32:11 10° S 13:35:31 18° SE 13:39:13 10° E daylight
17 Sep - 15:18:33 10° WSW 15:23:42 59° NW 15:29:56 10° NE daylight
17 Sep - 17:11:26 10° NW 17:13:04 11° NNW 17:14:45 10° NNW daylight
18 Sep - 00:37:46 10° N 00:41:44 15° NNE 00:45:27 10° ENE night (unlit)
18 Sep - 02:24:00 10° NW 02:31:08 70° NE 02:37:07 10° SE visible
18 Sep - 04:15:07 10° W 04:19:31 19° SW 04:23:27 10° S visible
18 Sep - 13:28:58 10° SSW 13:32:57 26° SE 13:37:28 10° E daylight
18 Sep - 15:16:21 10° WSW 15:21:13 40° NW 15:27:01 10° NNE daylight
19 Sep - 00:33:59 10° N 00:39:21 21° NE 00:44:17 10° E night (unlit)
19 Sep - 02:21:17 10° NW 02:28:33 85° SW 02:34:39 10° SE visible
19 Sep - 04:13:50 10° WSW 04:16:56 14° SW 04:19:49 10° SSW visible
19 Sep - 13:26:01 10° SSW 13:30:20 38° SE 13:35:22 10° ENE daylight
19 Sep - 15:14:21 10° W 15:18:46 28° NW 15:23:53 10° NNE daylight
20 Sep - 00:30:34 10° NNW 00:36:54 28° NE 00:42:38 10° E night (unlit)
20 Sep - 02:18:42 10° WNW 02:25:55 63° SW 02:32:01 10° SE night (unlit)
20 Sep - 13:23:15 10° SW 13:27:44 58° SE 13:33:01 10° ENE daylight
20 Sep - 15:12:40 10° W 15:16:21 19° NW 15:20:29 10° N daylight
21 Sep - 00:27:21 10° NNW 00:34:22 38° NE 00:40:40 10° ESE night (unlit)
21 Sep - 02:16:17 10° WNW 02:23:14 46° SW 02:29:13 10° SSE night (unlit)
21 Sep - 13:20:38 10° SW 13:25:09 88° SE 13:30:28 10° NE daylight
21 Sep - 15:11:33 10° WNW 15:13:58 13° NNW 15:16:33 10° N daylight
21 Sep - 22:39:55 10° NNE 22:42:04 11° NNE 22:44:11 10° NE night (unlit)
22 Sep - 00:24:17 10° NNW 00:31:47 51° NE 00:38:28 10° ESE night (unlit)
22 Sep - 02:14:01 10° WNW 02:20:33 34° SW 02:26:16 10° SSE night (unlit)
22 Sep - 11:32:26 10° SSE 11:34:32 13° SE 11:36:44 10° ESE daylight
22 Sep - 13:18:10 10° WSW 13:22:34 59° NW 13:27:43 10° NE daylight
22 Sep - 22:35:16 10° N 22:39:39 16° NE 22:43:54 10° ENE night (unlit)
23 Sep - 00:21:20 10° NW 00:29:08 68° NE 00:36:05 10° ESE night (unlit)
23 Sep - 02:11:59 10° W 02:17:51 26° SW 02:23:07 10° SSE night (unlit)
23 Sep - 11:28:48 10° S 11:31:57 20° SE 11:35:18 10° E daylight
23 Sep - 13:15:54 10° WSW 13:20:02 38° NW 13:24:46 10° NNE daylight
23 Sep - 22:31:29 10° N 22:37:08 21° NE 22:42:36 10° E night (unlit)
24 Sep - 00:18:31 10° NW 00:26:25 89° NE 00:33:31 10° SE night (unlit)
24 Sep - 02:10:14 10° W 02:15:10 19° SW 02:19:43 10° S night (unlit)
24 Sep - 11:25:37 10° SSW 11:29:19 30° SE 11:33:19 10° ENE daylight
24 Sep - 13:13:51 10° W 13:17:30 25° NW 13:21:35 10° NNE daylight
24 Sep - 22:28:01 10° NNW 22:34:32 28° NE 22:40:51 10° E night (unlit)
25 Sep - 00:15:49 10° NW 00:23:41 71° SW 00:30:48 10° SE night (unlit)
25 Sep - 02:08:59 10° WSW 02:12:32 14° SW 02:15:54 10° S night (unlit)
25 Sep - 11:22:40 10° SSW 11:26:41 48° SE 11:31:01 10° ENE daylight
25 Sep - 13:12:10 10° WNW 13:15:00 16° NW 13:18:03 10° N daylight
25 Sep - 22:24:44 10° NNW 22:31:52 37° NE 22:38:48 10° ESE night (unlit)
